Location: Grand Rapids
(42.9630°N, 85.6680°W)
Time: 02:56:34
(UTC-04:00)

S-56A Canister/Altair - Pass Details

Date: 04 June 2024
Orbit: 637 x 2489 km, 38.9° (Epoch: 22 June)

Event Time Altitude Azimuth Distance (km) Brightness Sun altitude
Rises 07:51:32 0° 276° (W) 6,151 11.6 17.0°
Reaches altitude 10° 07:55:44 10° 274° (W) 5,073 11.2 17.7°
Maximum altitude 08:09:50 65° 198° (SSW) 2,182 10.0 20.2°
Drops below altitude 10° 08:19:58 10° 119° (ESE) 3,752 11.9 22.0°
Sets 08:22:37 0° 116° (ESE) 4,510 12.3 22.5°
